Year,Month,Day,Hour,Minute,Value (Times are PST for temperature in C)
2014,08,10,00,00,15.90
2014,08,10,00,01,15.80
2014,08,10,00,02,15.80
2014,08,10,00,03,15.80
2014,08,10,00,04,15.80
2014,08,10,00,05,15.80
2014,08,10,00,06,15.80
2014,08,10,00,07,15.80
2014,08,10,00,08,15.90
2014,08,10,00,09,15.90
2014,08,10,00,10,15.90
2014,08,10,00,11,15.90
2014,08,10,00,12,15.90
2014,08,10,00,13,15.90
2014,08,10,00,14,15.90
2014,08,10,00,15,15.90
2014,08,10,00,16,15.90
2014,08,10,00,17,16.00
2014,08,10,00,18,16.00
2014,08,10,00,19,16.00
2014,08,10,00,20,16.00
2014,08,10,00,21,16.10
2014,08,10,00,22,16.10
2014,08,10,00,23,16.20
2014,08,10,00,24,16.30
2014,08,10,00,25,16.30
2014,08,10,00,26,16.40
2014,08,10,00,27,16.40
2014,08,10,00,28,16.50
2014,08,10,00,29,16.50
2014,08,10,00,30,16.50
2014,08,10,00,31,16.60
2014,08,10,00,32,16.60
2014,08,10,00,33,16.60
2014,08,10,00,34,16.60
2014,08,10,00,35,16.60
2014,08,10,00,36,16.70
2014,08,10,00,37,16.70
2014,08,10,00,38,16.70
2014,08,10,00,39,16.70
2014,08,10,00,40,16.70
2014,08,10,00,41,16.70
2014,08,10,00,42,16.70
2014,08,10,00,43,16.60
2014,08,10,00,44,16.60
2014,08,10,00,45,16.60
2014,08,10,00,46,16.60
2014,08,10,00,47,16.50
2014,08,10,00,48,16.50
2014,08,10,00,49,16.50
2014,08,10,00,50,16.40
2014,08,10,00,51,16.40
2014,08,10,00,52,16.40
2014,08,10,00,53,16.40
2014,08,10,00,54,16.30
2014,08,10,00,55,16.30
2014,08,10,00,56,16.30
2014,08,10,00,57,16.30
2014,08,10,00,58,16.30
2014,08,10,00,59,16.30
2014,08,10,01,00,16.30
2014,08,10,01,01,16.30
2014,08,10,01,02,16.30
2014,08,10,01,03,16.30
2014,08,10,01,04,16.30
2014,08,10,01,05,16.30
2014,08,10,01,06,16.30
2014,08,10,01,07,16.30
2014,08,10,01,08,16.30
2014,08,10,01,09,16.30
2014,08,10,01,10,16.20
2014,08,10,01,11,16.20
2014,08,10,01,12,16.20
2014,08,10,01,13,16.20
2014,08,10,01,14,16.20
2014,08,10,01,15,16.20
2014,08,10,01,16,16.10
2014,08,10,01,17,16.10
2014,08,10,01,18,16.10
2014,08,10,01,19,16.10
2014,08,10,01,20,16.10
2014,08,10,01,21,16.00
2014,08,10,01,22,16.00
2014,08,10,01,23,16.00
2014,08,10,01,24,16.00
2014,08,10,01,25,16.00
2014,08,10,01,26,16.00
2014,08,10,01,27,16.00
2014,08,10,01,28,16.00
2014,08,10,01,29,16.00
2014,08,10,01,30,16.00
2014,08,10,01,31,16.00
2014,08,10,01,32,16.00
2014,08,10,01,33,16.00
2014,08,10,01,34,16.00
2014,08,10,01,35,16.00
2014,08,10,01,36,16.00
2014,08,10,01,37,16.00
2014,08,10,01,38,16.00
2014,08,10,01,39,16.00
2014,08,10,01,40,16.00
2014,08,10,01,41,15.90
2014,08,10,01,42,15.90
2014,08,10,01,43,15.90
2014,08,10,01,44,16.00
2014,08,10,01,45,16.00
2014,08,10,01,46,16.00
2014,08,10,01,47,16.00
2014,08,10,01,48,16.00
2014,08,10,01,49,16.10
2014,08,10,01,50,16.10
2014,08,10,01,51,16.10
2014,08,10,01,52,16.10
2014,08,10,01,53,16.10
2014,08,10,01,54,16.00
2014,08,10,01,55,16.00
2014,08,10,01,56,15.90
2014,08,10,01,57,15.90
2014,08,10,01,58,15.90
2014,08,10,01,59,15.80
2014,08,10,02,00,15.80
2014,08,10,02,01,15.70
2014,08,10,02,02,15.70
2014,08,10,02,03,15.60
2014,08,10,02,04,15.60
2014,08,10,02,05,15.50
2014,08,10,02,06,15.50
2014,08,10,02,07,15.40
2014,08,10,02,08,15.40
2014,08,10,02,09,15.30
2014,08,10,02,10,15.30
2014,08,10,02,11,15.20
2014,08,10,02,12,15.20
2014,08,10,02,13,15.10
2014,08,10,02,14,15.10
2014,08,10,02,15,15.10
2014,08,10,02,16,15.00
2014,08,10,02,17,15.00
2014,08,10,02,18,15.00
2014,08,10,02,19,15.00
2014,08,10,02,20,15.00
2014,08,10,02,21,15.00
2014,08,10,02,22,15.00
2014,08,10,02,23,15.00
2014,08,10,02,24,15.00
2014,08,10,02,25,15.00
2014,08,10,02,26,15.00
2014,08,10,02,27,14.90
2014,08,10,02,28,14.90
2014,08,10,02,29,14.80
2014,08,10,02,30,14.80
2014,08,10,02,31,14.80
2014,08,10,02,32,14.80
2014,08,10,02,33,14.80
2014,08,10,02,34,14.70
2014,08,10,02,35,14.70
2014,08,10,02,36,14.70
2014,08,10,02,37,14.70
2014,08,10,02,38,14.70
2014,08,10,02,39,14.60
2014,08,10,02,40,14.60
2014,08,10,02,41,14.60
2014,08,10,02,42,14.60
2014,08,10,02,43,14.60
2014,08,10,02,44,14.60
2014,08,10,02,45,14.60
2014,08,10,02,46,14.60
2014,08,10,02,47,14.60
2014,08,10,02,48,14.60
2014,08,10,02,49,14.60
2014,08,10,02,50,14.60
2014,08,10,02,51,14.60
2014,08,10,02,52,14.50
2014,08,10,02,53,14.50
2014,08,10,02,54,14.50
2014,08,10,02,55,14.50
2014,08,10,02,56,14.50
2014,08,10,02,57,14.50
2014,08,10,02,58,14.50
2014,08,10,02,59,14.50
2014,08,10,03,00,14.50
2014,08,10,03,01,14.50
2014,08,10,03,02,14.50
2014,08,10,03,03,14.40
2014,08,10,03,04,14.40
2014,08,10,03,05,14.40
2014,08,10,03,06,14.40
2014,08,10,03,07,14.40
2014,08,10,03,08,14.40
2014,08,10,03,09,14.30
2014,08,10,03,10,14.30
2014,08,10,03,11,14.30
2014,08,10,03,12,14.30
2014,08,10,03,13,14.30
2014,08,10,03,14,14.30
2014,08,10,03,15,14.30
2014,08,10,03,16,14.30
2014,08,10,03,17,14.30
2014,08,10,03,18,14.30
2014,08,10,03,19,14.30
2014,08,10,03,20,14.30
2014,08,10,03,21,14.30
2014,08,10,03,22,14.30
2014,08,10,03,23,14.20
2014,08,10,03,24,14.20
2014,08,10,03,25,14.20
2014,08,10,03,26,14.20
2014,08,10,03,27,14.20
2014,08,10,03,28,14.20
2014,08,10,03,29,14.20
2014,08,10,03,30,14.10
2014,08,10,03,31,14.10
2014,08,10,03,32,14.10
2014,08,10,03,33,14.10
2014,08,10,03,34,14.10
2014,08,10,03,35,14.10
2014,08,10,03,36,14.00
2014,08,10,03,37,14.00
2014,08,10,03,38,14.00
2014,08,10,03,39,14.00
2014,08,10,03,40,14.00
2014,08,10,03,41,14.00
2014,08,10,03,42,14.00
2014,08,10,03,43,14.00
2014,08,10,03,44,14.00
2014,08,10,03,45,14.00
2014,08,10,03,49,14.00
2014,08,10,03,50,14.00
2014,08,10,03,51,14.00
2014,08,10,03,52,14.00
2014,08,10,03,53,13.90
2014,08,10,03,54,13.90
2014,08,10,03,55,13.90
2014,08,10,03,56,13.90
2014,08,10,03,57,13.90
2014,08,10,03,58,13.90
2014,08,10,03,59,13.90
2014,08,10,04,00,13.90
2014,08,10,04,01,13.90
2014,08,10,04,02,13.90
2014,08,10,04,03,13.90
2014,08,10,04,04,13.90
2014,08,10,04,05,13.90
2014,08,10,04,06,13.90
2014,08,10,04,07,13.90
2014,08,10,04,08,13.90
2014,08,10,04,09,13.90
2014,08,10,04,10,13.90
2014,08,10,04,11,13.90
2014,08,10,04,12,13.90
2014,08,10,04,13,13.90
2014,08,10,04,14,13.90
2014,08,10,04,15,13.90
2014,08,10,04,16,13.90
2014,08,10,04,17,13.90
2014,08,10,04,18,13.90
2014,08,10,04,19,14.00
2014,08,10,04,20,14.00
2014,08,10,04,21,14.00
2014,08,10,04,22,14.00
2014,08,10,04,23,14.00
2014,08,10,04,24,14.00
2014,08,10,04,25,14.00
2014,08,10,04,26,14.00
2014,08,10,04,27,14.00
2014,08,10,04,28,14.00
2014,08,10,04,29,14.00
2014,08,10,04,30,14.00
2014,08,10,04,31,14.00
2014,08,10,04,32,13.90
2014,08,10,04,33,13.90
2014,08,10,04,34,13.90
2014,08,10,04,35,13.90
2014,08,10,04,36,13.90
2014,08,10,04,37,13.90
2014,08,10,04,38,13.80
2014,08,10,04,39,13.80
2014,08,10,04,40,13.80
2014,08,10,04,41,13.80
2014,08,10,04,42,13.80
2014,08,10,04,43,13.80
2014,08,10,04,44,13.80
2014,08,10,04,45,13.80
2014,08,10,04,46,13.80
2014,08,10,04,47,13.70
2014,08,10,04,48,13.70
2014,08,10,04,49,13.70
2014,08,10,04,50,13.70
2014,08,10,04,51,13.70
2014,08,10,04,52,13.70
2014,08,10,04,53,13.70
2014,08,10,04,54,13.70
2014,08,10,04,55,13.70
2014,08,10,04,56,13.60
2014,08,10,04,57,13.60
2014,08,10,04,58,13.60
2014,08,10,04,59,13.60
2014,08,10,05,00,13.60
2014,08,10,05,01,13.60
2014,08,10,05,02,13.60
2014,08,10,05,03,13.50
2014,08,10,05,04,13.50
2014,08,10,05,05,13.50
2014,08,10,05,06,13.50
2014,08,10,05,07,13.50
2014,08,10,05,08,13.50
2014,08,10,05,09,13.50
2014,08,10,05,10,13.50
2014,08,10,05,11,13.50
2014,08,10,05,12,13.50
2014,08,10,05,13,13.50
2014,08,10,05,14,13.50
2014,08,10,05,15,13.50
2014,08,10,05,16,13.50
2014,08,10,05,17,13.50
2014,08,10,05,18,13.50
2014,08,10,05,19,13.50
2014,08,10,05,20,13.50
2014,08,10,05,21,13.50
2014,08,10,05,22,13.40
2014,08,10,05,23,13.40
2014,08,10,05,24,13.40
2014,08,10,05,25,13.40
2014,08,10,05,26,13.40
2014,08,10,05,27,13.40
2014,08,10,05,28,13.40
2014,08,10,05,29,13.40
2014,08,10,05,30,13.40
2014,08,10,05,31,13.40
2014,08,10,05,32,13.40
2014,08,10,05,33,13.40
2014,08,10,05,34,13.40
2014,08,10,05,35,13.40
2014,08,10,05,36,13.40
2014,08,10,05,37,13.40
2014,08,10,05,38,13.40
2014,08,10,05,39,13.40
2014,08,10,05,40,13.40
2014,08,10,05,41,13.40
2014,08,10,05,42,13.30
2014,08,10,05,43,13.30
2014,08,10,05,44,13.30
2014,08,10,05,45,13.30
2014,08,10,05,46,13.30
2014,08,10,05,47,13.30
2014,08,10,05,48,13.30
2014,08,10,05,49,13.30
2014,08,10,05,50,13.30
2014,08,10,05,51,13.30
2014,08,10,05,52,13.30
2014,08,10,05,53,13.30
2014,08,10,05,54,13.30
2014,08,10,05,55,13.30
2014,08,10,05,56,13.30
2014,08,10,05,57,13.30
2014,08,10,05,58,13.30
2014,08,10,05,59,13.30
2014,08,10,06,00,13.30
2014,08,10,06,01,13.30
2014,08,10,06,02,13.30
2014,08,10,06,03,13.30
2014,08,10,06,04,13.20
2014,08,10,06,05,13.30
2014,08,10,06,06,13.20
2014,08,10,06,07,13.20
2014,08,10,06,08,13.20
2014,08,10,06,09,13.20
2014,08,10,06,10,13.20
2014,08,10,06,11,13.30
2014,08,10,06,12,13.30
2014,08,10,06,13,13.30
2014,08,10,06,14,13.20
2014,08,10,06,15,13.30
2014,08,10,06,16,13.30
2014,08,10,06,17,13.30
2014,08,10,06,18,13.20
2014,08,10,06,19,13.30
2014,08,10,06,20,13.20
2014,08,10,06,21,13.30
2014,08,10,06,22,13.20
2014,08,10,06,23,13.20
2014,08,10,06,24,13.20
2014,08,10,06,25,13.30
2014,08,10,06,26,13.30
2014,08,10,06,27,13.30
2014,08,10,06,28,13.30
2014,08,10,06,29,13.30
2014,08,10,06,30,13.30
2014,08,10,06,31,13.30
2014,08,10,06,32,13.30
2014,08,10,06,33,13.40
2014,08,10,06,34,13.40
2014,08,10,06,35,13.40
2014,08,10,06,36,13.40
2014,08,10,06,37,13.50
2014,08,10,06,38,13.50
2014,08,10,06,39,13.50
2014,08,10,06,40,13.60
2014,08,10,06,41,13.60
2014,08,10,06,42,13.60
2014,08,10,06,43,13.60
2014,08,10,06,44,13.70
2014,08,10,06,45,13.70
2014,08,10,06,46,13.80
2014,08,10,06,47,13.80
2014,08,10,06,48,13.80
2014,08,10,06,49,13.90
2014,08,10,06,50,13.90
2014,08,10,06,51,13.90
2014,08,10,06,52,14.00
2014,08,10,06,53,14.10
2014,08,10,06,54,14.10
2014,08,10,06,55,14.20
2014,08,10,06,56,14.20
2014,08,10,06,57,14.30
2014,08,10,06,58,14.40
2014,08,10,06,59,14.40
2014,08,10,07,00,14.50
2014,08,10,07,01,14.50
2014,08,10,07,02,14.60
2014,08,10,07,03,14.60
2014,08,10,07,04,14.70
2014,08,10,07,05,14.70
2014,08,10,07,06,14.80
2014,08,10,07,07,14.80
2014,08,10,07,08,14.80
2014,08,10,07,09,14.80
2014,08,10,07,10,14.80
2014,08,10,07,11,14.90
2014,08,10,07,12,14.90
2014,08,10,07,13,15.00
2014,08,10,07,14,15.00
2014,08,10,07,15,15.00
2014,08,10,07,16,15.00
2014,08,10,07,17,15.00
2014,08,10,07,18,15.00
2014,08,10,07,19,15.10
2014,08,10,07,20,15.20
2014,08,10,07,21,15.20
2014,08,10,07,22,15.30
2014,08,10,07,23,15.40
2014,08,10,07,24,15.40
2014,08,10,07,25,15.50
2014,08,10,07,26,15.60
2014,08,10,07,27,15.70
2014,08,10,07,28,15.80
2014,08,10,07,29,15.80
2014,08,10,07,30,15.90
2014,08,10,07,31,15.90
2014,08,10,07,32,16.00
2014,08,10,07,33,16.10
2014,08,10,07,34,16.20
2014,08,10,07,35,16.30
2014,08,10,07,36,16.40
2014,08,10,07,37,16.50
2014,08,10,07,38,16.70
2014,08,10,07,39,16.80
2014,08,10,07,40,16.90
2014,08,10,07,41,17.10
2014,08,10,07,42,17.20
2014,08,10,07,43,17.40
2014,08,10,07,44,17.50
2014,08,10,07,45,17.60
2014,08,10,07,46,17.70
2014,08,10,07,47,17.70
2014,08,10,07,48,17.80
2014,08,10,07,49,17.80
2014,08,10,07,50,17.80
2014,08,10,07,51,17.90
2014,08,10,07,52,17.90
2014,08,10,07,53,18.00
2014,08,10,07,54,18.00
2014,08,10,07,55,18.10
2014,08,10,07,56,18.10
2014,08,10,07,57,18.20
2014,08,10,07,58,18.30
2014,08,10,07,59,18.40
2014,08,10,08,00,18.50
2014,08,10,08,01,18.60
2014,08,10,08,02,18.70
2014,08,10,08,03,18.80
2014,08,10,08,04,19.00
2014,08,10,08,05,19.10
2014,08,10,08,06,19.20
2014,08,10,08,07,19.30
2014,08,10,08,08,19.40
2014,08,10,08,09,19.60
2014,08,10,08,10,19.60
2014,08,10,08,11,19.70
2014,08,10,08,12,19.80
2014,08,10,08,13,19.90
2014,08,10,08,14,20.00
2014,08,10,08,15,20.10
2014,08,10,08,16,20.20
2014,08,10,08,17,20.30
2014,08,10,08,18,20.40
2014,08,10,08,19,20.60
2014,08,10,08,20,20.60
2014,08,10,08,21,20.70
2014,08,10,08,22,20.80
2014,08,10,08,23,20.90
2014,08,10,08,24,21.00
2014,08,10,08,25,21.20
2014,08,10,08,26,21.30
2014,08,10,08,27,21.30
2014,08,10,08,28,21.40
2014,08,10,08,29,21.50
2014,08,10,08,30,21.50
2014,08,10,08,31,21.60
2014,08,10,08,32,21.60
2014,08,10,08,33,21.60
2014,08,10,08,34,21.70
2014,08,10,08,35,21.70
2014,08,10,08,36,21.80
2014,08,10,08,37,21.80
2014,08,10,08,38,21.80
2014,08,10,08,39,21.90
2014,08,10,08,40,21.90
2014,08,10,08,41,21.90
2014,08,10,08,42,21.90
2014,08,10,08,43,21.80
2014,08,10,08,44,21.80
2014,08,10,08,45,21.80
2014,08,10,08,46,21.80
2014,08,10,08,47,21.80
2014,08,10,08,48,21.90
2014,08,10,08,49,22.00
2014,08,10,08,50,22.10
2014,08,10,08,51,22.10
2014,08,10,08,52,22.20
2014,08,10,08,53,22.20
2014,08,10,08,54,22.30
2014,08,10,08,55,22.40
2014,08,10,08,56,22.50
2014,08,10,08,57,22.60
2014,08,10,08,58,22.70
2014,08,10,08,59,22.70
2014,08,10,09,00,22.80
2014,08,10,09,01,22.80
2014,08,10,09,02,22.80
2014,08,10,09,03,22.80
2014,08,10,09,04,22.80
2014,08,10,09,05,22.70
2014,08,10,09,06,22.60
2014,08,10,09,07,22.60
2014,08,10,09,08,22.70
2014,08,10,09,09,22.70
2014,08,10,09,10,22.80
2014,08,10,09,11,22.90
2014,08,10,09,12,23.00
2014,08,10,09,13,23.00
2014,08,10,09,14,23.10
2014,08,10,09,15,23.10
2014,08,10,09,16,23.10
2014,08,10,09,17,23.00
2014,08,10,09,18,23.00
2014,08,10,09,19,22.90
2014,08,10,09,20,22.90
2014,08,10,09,21,23.00
2014,08,10,09,22,23.10
2014,08,10,09,23,23.20
2014,08,10,09,24,23.30
2014,08,10,09,25,23.30
2014,08,10,09,26,23.30
2014,08,10,09,27,23.40
2014,08,10,09,28,23.30
2014,08,10,09,29,23.30
2014,08,10,09,30,23.40
2014,08,10,09,31,23.40
2014,08,10,09,32,23.30
2014,08,10,09,33,23.30
2014,08,10,09,34,23.30
2014,08,10,09,35,23.40
2014,08,10,09,36,23.50
2014,08,10,09,37,23.60
2014,08,10,09,38,23.70
2014,08,10,09,39,23.80
2014,08,10,09,40,23.80
2014,08,10,09,41,23.90
2014,08,10,09,42,23.90
2014,08,10,09,43,23.80
2014,08,10,09,44,23.80
2014,08,10,09,45,23.70
2014,08,10,09,46,23.70
2014,08,10,09,47,23.70
2014,08,10,09,48,23.80
2014,08,10,09,49,23.80
2014,08,10,09,50,23.80
2014,08,10,09,51,23.80
2014,08,10,09,52,23.80
2014,08,10,09,53,23.80
2014,08,10,09,54,23.80
2014,08,10,09,55,23.90
2014,08,10,09,56,24.00
2014,08,10,09,57,24.10
2014,08,10,09,58,24.20
2014,08,10,09,59,24.30
2014,08,10,10,00,24.40
2014,08,10,10,01,24.60
2014,08,10,10,02,24.70
2014,08,10,10,03,24.80
2014,08,10,10,04,24.80
2014,08,10,10,05,24.80
2014,08,10,10,06,24.80
2014,08,10,10,07,24.80
2014,08,10,10,08,24.70
2014,08,10,10,09,24.70
2014,08,10,10,10,24.60
2014,08,10,10,11,24.50
2014,08,10,10,12,24.50
2014,08,10,10,13,24.60
2014,08,10,10,14,24.70
2014,08,10,10,15,24.70
2014,08,10,10,16,24.80
2014,08,10,10,17,24.80
2014,08,10,10,18,24.90
2014,08,10,10,19,24.90
2014,08,10,10,20,24.90
2014,08,10,10,21,24.90
2014,08,10,10,22,24.90
2014,08,10,10,23,25.00
2014,08,10,10,24,25.00
2014,08,10,10,25,25.10
2014,08,10,10,26,25.10
2014,08,10,10,27,25.10
2014,08,10,10,28,25.20
2014,08,10,10,29,25.10
2014,08,10,10,30,25.10
2014,08,10,10,31,25.10
2014,08,10,10,32,25.10
2014,08,10,10,33,25.10
2014,08,10,10,34,25.00
2014,08,10,10,35,25.00
2014,08,10,10,36,25.00
2014,08,10,10,37,24.90
2014,08,10,10,38,24.80
2014,08,10,10,39,24.60
2014,08,10,10,40,24.50
2014,08,10,10,41,24.50
2014,08,10,10,42,24.40
2014,08,10,10,43,24.30
2014,08,10,10,44,24.30
2014,08,10,10,45,24.20
2014,08,10,10,46,24.10
2014,08,10,10,47,24.00
2014,08,10,10,48,24.00
2014,08,10,10,49,23.90
2014,08,10,10,50,23.80
2014,08,10,10,51,23.90
2014,08,10,10,52,23.90
2014,08,10,10,53,23.90
2014,08,10,10,54,23.90
2014,08,10,10,55,23.90
2014,08,10,10,56,23.90
2014,08,10,10,57,24.00
2014,08,10,10,58,24.10
2014,08,10,10,59,24.20
2014,08,10,11,00,24.30
2014,08,10,11,01,24.30
2014,08,10,11,02,24.30
2014,08,10,11,03,24.40
2014,08,10,11,04,24.40
2014,08,10,11,05,24.50
2014,08,10,11,06,24.50
2014,08,10,11,07,24.60
2014,08,10,11,08,24.60
2014,08,10,11,09,24.60
2014,08,10,11,10,24.50
2014,08,10,11,11,24.40
2014,08,10,11,12,24.30
2014,08,10,11,13,24.30
2014,08,10,11,14,24.30
2014,08,10,11,15,24.30
2014,08,10,11,16,24.30
2014,08,10,11,17,24.30
2014,08,10,11,18,24.30
2014,08,10,11,19,24.20
2014,08,10,11,20,24.20
2014,08,10,11,21,24.10
2014,08,10,11,22,24.20
2014,08,10,11,23,24.20
2014,08,10,11,24,24.10
2014,08,10,11,25,24.00
2014,08,10,11,26,23.90
2014,08,10,11,27,23.90
2014,08,10,11,28,23.90
2014,08,10,11,29,24.00
2014,08,10,11,30,24.10
2014,08,10,11,31,24.20
2014,08,10,11,32,24.30
2014,08,10,11,33,24.40
2014,08,10,11,34,24.40
2014,08,10,11,35,24.50
2014,08,10,11,36,24.60
2014,08,10,11,37,24.70
2014,08,10,11,38,24.80
2014,08,10,11,39,24.90
2014,08,10,11,40,24.90
2014,08,10,11,41,25.00
2014,08,10,11,42,25.10
2014,08,10,11,43,25.20
2014,08,10,11,44,25.30
2014,08,10,11,45,25.40
2014,08,10,11,46,25.40
2014,08,10,11,47,25.50
2014,08,10,11,48,25.60
2014,08,10,11,49,25.70
2014,08,10,11,50,25.70
2014,08,10,11,51,25.80
2014,08,10,11,52,25.90
2014,08,10,11,53,25.90
2014,08,10,11,54,26.00
2014,08,10,11,55,26.00
2014,08,10,11,56,25.90
2014,08,10,11,57,25.80
2014,08,10,11,58,25.80
2014,08,10,11,59,25.80
2014,08,10,12,00,25.80
2014,08,10,12,01,25.80
2014,08,10,12,02,25.90
2014,08,10,12,03,25.90
2014,08,10,12,04,25.90
2014,08,10,12,05,25.90
2014,08,10,12,06,26.00
2014,08,10,12,07,26.10
2014,08,10,12,08,26.20
2014,08,10,12,09,26.30
2014,08,10,12,10,26.40
2014,08,10,12,11,26.40
2014,08,10,12,12,26.40
2014,08,10,12,13,26.40
2014,08,10,12,14,26.40
2014,08,10,12,15,26.30
2014,08,10,12,16,26.20
2014,08,10,12,17,26.30
2014,08,10,12,18,26.30
2014,08,10,12,19,26.30
2014,08,10,12,20,26.30
2014,08,10,12,21,26.30
2014,08,10,12,22,26.20
2014,08,10,12,23,26.00
2014,08,10,12,24,25.90
2014,08,10,12,25,25.90
2014,08,10,12,26,25.90
2014,08,10,12,27,25.90
2014,08,10,12,28,26.00
2014,08,10,12,29,26.10
2014,08,10,12,30,26.10
2014,08,10,12,31,26.20
2014,08,10,12,32,26.30
2014,08,10,12,33,26.50
2014,08,10,12,34,26.60
2014,08,10,12,35,26.60
2014,08,10,12,36,26.60
2014,08,10,12,37,26.50
2014,08,10,12,38,26.30
2014,08,10,12,39,26.30
2014,08,10,12,40,26.30
2014,08,10,12,41,26.30
2014,08,10,12,42,26.40
2014,08,10,12,43,26.50
2014,08,10,12,44,26.60
2014,08,10,12,45,26.80
2014,08,10,12,46,26.80
2014,08,10,12,47,26.90
2014,08,10,12,48,27.10
2014,08,10,12,49,27.10
2014,08,10,12,50,27.00
2014,08,10,12,51,26.90
2014,08,10,12,52,26.90
2014,08,10,12,53,27.00
2014,08,10,12,54,27.10
2014,08,10,12,55,27.10
2014,08,10,12,56,27.10
2014,08,10,12,57,27.00
2014,08,10,12,58,27.00
2014,08,10,12,59,27.00
2014,08,10,13,00,27.10
2014,08,10,13,01,27.20
2014,08,10,13,02,27.30
2014,08,10,13,03,27.40
2014,08,10,13,04,27.60
2014,08,10,13,05,27.80
2014,08,10,13,06,27.80
2014,08,10,13,07,28.00
2014,08,10,13,08,28.10
2014,08,10,13,09,28.20
2014,08,10,13,10,28.30
2014,08,10,13,11,28.30
2014,08,10,13,12,28.20
2014,08,10,13,13,28.10
2014,08,10,13,14,28.00
2014,08,10,13,15,27.90
2014,08,10,13,16,27.80
2014,08,10,13,17,27.80
2014,08,10,13,18,27.70
2014,08,10,13,19,27.70
2014,08,10,13,20,27.60
2014,08,10,13,21,27.70
2014,08,10,13,22,27.70
2014,08,10,13,23,27.80
2014,08,10,13,24,27.80
2014,08,10,13,25,27.80
2014,08,10,13,26,27.90
2014,08,10,13,27,27.90
2014,08,10,13,28,27.90
2014,08,10,13,29,27.90
2014,08,10,13,30,27.90
2014,08,10,13,31,28.00
2014,08,10,13,32,28.00
2014,08,10,13,33,28.00
2014,08,10,13,34,28.00
2014,08,10,13,35,27.90
2014,08,10,13,36,27.90
2014,08,10,13,37,27.80
2014,08,10,13,38,27.80
2014,08,10,13,39,27.90
2014,08,10,13,40,27.90
2014,08,10,13,41,27.90
2014,08,10,13,42,27.90
2014,08,10,13,43,28.00
2014,08,10,13,44,28.00
2014,08,10,13,45,27.90
2014,08,10,13,46,27.90
2014,08,10,13,47,27.90
2014,08,10,13,48,28.00
2014,08,10,13,49,27.90
2014,08,10,13,50,27.90
2014,08,10,13,51,27.90
2014,08,10,13,52,27.80
2014,08,10,13,53,27.80
2014,08,10,13,54,27.70
2014,08,10,13,55,27.70
2014,08,10,13,56,27.70
2014,08,10,13,57,27.60
2014,08,10,13,58,27.60
2014,08,10,13,59,27.70
2014,08,10,14,00,27.80
2014,08,10,14,01,27.90
2014,08,10,14,02,28.00
2014,08,10,14,03,28.00
2014,08,10,14,04,28.10
2014,08,10,14,05,28.00
2014,08,10,14,06,27.90
2014,08,10,14,07,27.90
2014,08,10,14,08,27.80
2014,08,10,14,09,27.80
2014,08,10,14,10,27.60
2014,08,10,14,11,27.60
2014,08,10,14,12,27.50
2014,08,10,14,13,27.50
2014,08,10,14,14,27.50
2014,08,10,14,15,27.60
2014,08,10,14,16,27.60
2014,08,10,14,17,27.60
2014,08,10,14,18,27.60
2014,08,10,14,19,27.70
2014,08,10,14,20,27.80
2014,08,10,14,21,28.00
2014,08,10,14,22,28.10
2014,08,10,14,23,28.20
2014,08,10,14,24,28.30
2014,08,10,14,25,28.30
2014,08,10,14,26,28.40
2014,08,10,14,27,28.40
2014,08,10,14,28,28.40
2014,08,10,14,29,28.40
2014,08,10,14,30,28.40
2014,08,10,14,31,28.50
2014,08,10,14,32,28.60
2014,08,10,14,33,28.70
2014,08,10,14,34,28.60
2014,08,10,14,35,28.50
2014,08,10,14,36,28.50
2014,08,10,14,37,28.50
2014,08,10,14,38,28.60
2014,08,10,14,39,28.60
2014,08,10,14,40,28.70
2014,08,10,14,41,28.70
2014,08,10,14,42,28.70
2014,08,10,14,43,28.70
2014,08,10,14,44,28.70
2014,08,10,14,45,28.70
2014,08,10,14,46,28.60
2014,08,10,14,47,28.50
2014,08,10,14,48,28.40
2014,08,10,14,49,28.50
2014,08,10,14,50,28.50
2014,08,10,14,51,28.50
2014,08,10,14,52,28.40
2014,08,10,14,53,28.30
2014,08,10,14,54,28.40
2014,08,10,14,55,28.40
2014,08,10,14,56,28.30
2014,08,10,14,57,28.20
2014,08,10,14,58,28.10
2014,08,10,14,59,28.10
2014,08,10,15,00,28.10
2014,08,10,15,01,28.10
2014,08,10,15,02,28.00
2014,08,10,15,03,27.90
2014,08,10,15,04,27.90
2014,08,10,15,05,27.80
2014,08,10,15,06,27.80
2014,08,10,15,07,27.90
2014,08,10,15,08,27.80
2014,08,10,15,09,27.80
2014,08,10,15,10,27.80
2014,08,10,15,11,27.80
2014,08,10,15,12,27.90
2014,08,10,15,13,27.90
2014,08,10,15,14,27.90
2014,08,10,15,15,27.80
2014,08,10,15,16,27.80
2014,08,10,15,17,27.80
2014,08,10,15,18,27.80
2014,08,10,15,19,27.80
2014,08,10,15,20,27.70
2014,08,10,15,21,27.70
2014,08,10,15,22,27.70
2014,08,10,15,23,27.70
2014,08,10,15,24,27.70
2014,08,10,15,25,27.70
2014,08,10,15,26,27.80
2014,08,10,15,27,27.80
2014,08,10,15,28,27.90
2014,08,10,15,29,27.90
2014,08,10,15,30,28.00
2014,08,10,15,31,28.10
2014,08,10,15,32,28.10
2014,08,10,15,33,28.20
2014,08,10,15,34,28.20
2014,08,10,15,35,28.20
2014,08,10,15,36,28.30
2014,08,10,15,37,28.30
2014,08,10,15,38,28.30
2014,08,10,15,39,28.30
2014,08,10,15,40,28.40
2014,08,10,15,41,28.40
2014,08,10,15,42,28.40
2014,08,10,15,43,28.30
2014,08,10,15,44,28.10
2014,08,10,15,45,28.10
2014,08,10,15,46,28.10
2014,08,10,15,47,28.20
2014,08,10,15,48,28.20
2014,08,10,15,49,28.20
2014,08,10,15,50,28.30
2014,08,10,15,51,28.30
2014,08,10,15,52,28.30
2014,08,10,15,53,28.40
2014,08,10,15,54,28.40
2014,08,10,15,55,28.40
2014,08,10,15,56,28.40
2014,08,10,15,57,28.30
2014,08,10,15,58,28.20
2014,08,10,15,59,28.20
2014,08,10,16,00,28.20
2014,08,10,16,01,28.20
2014,08,10,16,02,28.30
2014,08,10,16,03,28.40
2014,08,10,16,04,28.40
2014,08,10,16,05,28.40
2014,08,10,16,06,28.40
2014,08,10,16,07,28.50
2014,08,10,16,08,28.50
2014,08,10,16,09,28.60
2014,08,10,16,10,28.60
2014,08,10,16,11,28.50
2014,08,10,16,12,28.50
2014,08,10,16,13,28.60
2014,08,10,16,14,28.60
2014,08,10,16,15,28.60
2014,08,10,16,16,28.60
2014,08,10,16,17,28.70
2014,08,10,16,18,28.80
2014,08,10,16,19,28.90
2014,08,10,16,20,28.90
2014,08,10,16,21,28.80
2014,08,10,16,22,28.80
2014,08,10,16,23,28.60
2014,08,10,16,24,28.60
2014,08,10,16,25,28.60
2014,08,10,16,26,28.60
2014,08,10,16,27,28.60
2014,08,10,16,28,28.60
2014,08,10,16,29,28.50
2014,08,10,16,30,28.40
2014,08,10,16,31,28.30
2014,08,10,16,32,28.30
2014,08,10,16,33,28.30
2014,08,10,16,34,28.40
2014,08,10,16,35,28.40
2014,08,10,16,36,28.40
2014,08,10,16,37,28.40
2014,08,10,16,38,28.40
2014,08,10,16,39,28.40
2014,08,10,16,40,28.40
2014,08,10,16,41,28.30
2014,08,10,16,42,28.30
2014,08,10,16,43,28.30
2014,08,10,16,44,28.20
2014,08,10,16,45,28.20
2014,08,10,16,46,28.20
2014,08,10,16,47,28.30
2014,08,10,16,48,28.40
2014,08,10,16,49,28.40
2014,08,10,16,50,28.40
2014,08,10,16,51,28.40
2014,08,10,16,52,28.40
2014,08,10,16,53,28.40
2014,08,10,16,54,28.30
2014,08,10,16,55,28.30
2014,08,10,16,56,28.30
2014,08,10,16,57,28.30
2014,08,10,16,58,28.30
2014,08,10,16,59,28.30
2014,08,10,17,00,28.40
2014,08,10,17,01,28.50
2014,08,10,17,02,28.50
2014,08,10,17,03,28.60
2014,08,10,17,04,28.60
2014,08,10,17,05,28.60
2014,08,10,17,06,28.50
2014,08,10,17,07,28.50
2014,08,10,17,08,28.40
2014,08,10,17,09,28.30
2014,08,10,17,10,28.40
2014,08,10,17,11,28.40
2014,08,10,17,12,28.40
2014,08,10,17,13,28.40
2014,08,10,17,14,28.30
2014,08,10,17,15,28.40
2014,08,10,17,16,28.50
2014,08,10,17,17,28.50
2014,08,10,17,18,28.60
2014,08,10,17,19,28.70
2014,08,10,17,20,28.70
2014,08,10,17,21,28.70
2014,08,10,17,22,28.70